Probability
0 0 0 0 0 0 0 0 0 0 0 0 0 0 6 10 10 26 29 45 45 39 39 52 48 42 32 19 19 16 19 10 10 13 10 10 6 3 3 6 6 6 0 0
0 0 0 0 0 0 0 0 0 0 0 0 0 6 10 6 10 26 35 45 39 35 42 45 32 32 32 23 16 13 10 10 13 10 6 6 6 3 3 6 10 6 0 0
0 0 0 0 0 0 0 0 0 0 0 0 0 3 10 13 23 26 29 29 39 45 35 42 39 35 29 19 16 16 10 10 10 3 3 3 3 0 0 0 0 3 0 0
0 0 0 0 0 0 0 0 0 0 0 0 0 0 0 0 16 16 26 35 35 35 45 32 39 32 32 19 16 6 10 10 10 0 3 3 3 6 6 3 3 3 6 3
0 0 0 0 0 0 0 0 0 0 0 0 0 0 0 0 6 16 19 32 39 35 42 45 39 32 26 16 16 13 10 10 6 0 3 3 3 3 3 0 3 3 3 3
0 0 0 0 0 0 0 0 0 0 0 0 0 0 0 0 0 6 16 39 35 39 42 35 35 29 29 16 13 19 16 10 3 6 3 3 3 0 0 0 3 3 0 0
0 0 0 0 0 0 0 0 0 0 0 0 0 0 0 0 0 0 6 29 29 45 42 39 35 29 29 26 19 23 16 13 6 6 3 0 0 0 0 3 3 3 0 0
0 0 0 0 0 0 0 0 0 0 0 0 0 0 0 3 3 0 6 23 29 29 45 42 39 29 26 26 16 16 16 13 10 6 6 3 0 0 0 0 3 3 3 0
0 0 0 0 0 0 0 0 0 0 0 0 0 0 0 3 3 10 16 23 26 26 26 35 26 23 23 23 13 16 13 16 13 10 6 6 3 0 0 3 0 3 0 0
0 0 0 0 0 0 0 0 0 0 0 0 0 0 0 3 3 6 19 23 29 23 23 19 13 16 16 16 13 13 10 10 10 6 6 6 6 3 3 3 3 0 0 0
0 0 0 0 0 0 0 0 0 0 0 0 0 0 0 0 3 3 13 16 26 19 19 19 13 10 10 6 13 10 10 10 6 6 6 6 6 6 3 3 3 0 0 0
0 0 0 0 0 0 0 0 0 0 0 0 0 0 0 0 3 6 6 13 16 23 23 19 13 6 3 10 6 3 6 6 10 10 6 6 6 6 6 3 3 3 3 0
0 0 0 0 0 0 0 0 0 0 0 0 0 0 0 0 3 6 6 10 19 19 19 19 10 10 6 6 6 6 3 6 6 16 13 6 6 6 6 6 3 3 3 3
0 0 0 0 0 0 0 0 0 0 0 0 0 0 0 0 3 3 6 10 13 16 16 19 6 3 3 3 6 6 6 3 3 6 13 10 10 6 6 6 3 3 3 3
0 0 0 0 0 0 0 0 0 0 0 0 0 0 3 3 10 3 6 6 10 13 10 6 3 3 3 3 3 3 6 6 6 3 10 13 10 10 10 10 10 3 3 3
0 0 0 0 0 0 0 0 0 0 0 0 0 0 13 0 3 3 10 6 6 6 6 3 3 3 3 3 3 3 6 3 3 6 6 10 13 10 10 13 10 10 6 3
0 0 0 0 0 0 0 0 0 0 0 0 0 0 3 3 10 6 10 10 10 3 6 0 0 3 3 3 3 3 6 6 3 6 13 13 10 10 13 10 10 6 6 3
0 0 0 0 0 0 0 0 3 0 3 3 3 3 10 10 10 13 16 6 10 3 3 0 0 0 0 0 3 3 3 3 6 6 6 13 10 13 13 13 10 6 6 3
0 0 0 0 0 0 0 0 0 0 0 0 0 6 10 6 3 6 13 10 6 6 3 3 3 3 3 3 3 6 10 6 3 3 6 10 10 10 10 10 6 6 6 3
0 0 0 0 0 0 0 0 0 0 0 0 0 3 3 6 3 3 3 3 3 3 3 3 3 0 0 3 3 6 13 6 6 6 6 10 10 10 10 6 6 3 6 3
0 0 0 0 0 0 0 0 0 0 0 0 0 0 3 0 3 3 3 3 3 3 3 3 3 0 0 3 3 6 10 10 6 6 6 10 10 6 6 6 3 3 0 0
0 0 0 0 0 0 0 0 0 0 0 0 0 3 3 3 3 3 6 6 6 6 3 3 3 0 3 3 6 6 6 6 6 6 10 6 6 6 6 6 3 0 0 0
0 0 0 0 0 0 0 0 0 0 0 0 3 3 3 6 6 3 3 3 0 0 0 3 3 0 3 3 3 6 3 3 0 6 6 3 3 3 6 6 0 0 0 0
0 0 0 0 0 0 3 0 0 0 0 0 0 0 0 0 3 3 0 0 0 0 0 0 0 0 3 0 0 0 0 0 3 0 0 3 3 3 3 0 0 0 0 0
0 0 0 0 0 3 3 0 0 0 0 0 0 0 0 0 0 3 3 0 0 0 0 0 0 0 0 0 0 0 0 0 0 0 0 0 0 0 0 0 0 0 0 0
0 0 0 0 0 0 0 0 0 0 0 0 0 0 0 0 0 0 3 3 3 0 0 3 0 0 0 0 0 0 0 0 0 0 0 0 0 0 0 0 0 0 0 0
Height
5866 5868 5869 5869 5869 5870 5870 5871 5871 5871 5870 5870 5871 5872 5872 5871 5871 5870 5869 5867 5865 5863 5861 5859 5856 5854 5852 5850 5848 5847 5847 5847 5849 5850 5852 5853 5856 5858 5861 5864 5867 5869 5872 5874
5862 5864 5864 5864 5865 5867 5867 5868 5868 5868 5867 5867 5868 5869 5869 5869 5868 5867 5867 5865 5864 5861 5859 5857 5855 5853 5851 5849 5847 5846 5845 5845 5847 5848 5850 5852 5854 5856 5859 5862 5865 5868 5871 5873
5856 5859 5859 5860 5862 5863 5864 5865 5865 5864 5864 5864 5865 5866 5867 5866 5866 5865 5864 5863 5862 5860 5858 5856 5854 5852 5850 5848 5846 5844 5844 5844 5845 5847 5848 5850 5852 5855 5858 5861 5864 5867 5869 5871
5850 5852 5854 5856 5858 5859 5860 5860 5861 5861 5861 5861 5862 5863 5864 5863 5863 5862 5862 5861 5860 5859 5857 5855 5853 5851 5849 5846 5844 5843 5842 5842 5843 5845 5846 5849 5851 5854 5856 5859 5862 5865 5867 5870
5845 5847 5848 5851 5853 5854 5855 5855 5857 5857 5857 5859 5859 5859 5861 5860 5860 5860 5859 5859 5858 5857 5855 5854 5852 5850 5848 5846 5843 5842 5841 5841 5842 5844 5845 5847 5850 5852 5855 5857 5860 5863 5866 5869
5839 5841 5844 5846 5848 5849 5851 5851 5853 5854 5855 5856 5857 5856 5858 5857 5857 5857 5857 5856 5855 5854 5853 5852 5851 5849 5847 5845 5843 5841 5840 5839 5840 5842 5843 5845 5848 5850 5852 5855 5858 5861 5864 5867
5833 5836 5839 5841 5843 5845 5847 5848 5849 5850 5851 5853 5853 5853 5855 5854 5854 5854 5854 5853 5853 5852 5851 5850 5849 5847 5846 5844 5842 5840 5839 5839 5839 5839 5840 5843 5845 5848 5850 5853 5857 5860 5863 5865
5827 5831 5833 5836 5839 5840 5842 5844 5846 5847 5848 5849 5849 5850 5852 5851 5851 5851 5851 5851 5850 5850 5849 5848 5847 5846 5844 5842 5841 5840 5839 5838 5837 5838 5839 5842 5844 5846 5849 5852 5855 5858 5860 5863
5822 5825 5828 5830 5833 5835 5836 5839 5841 5843 5844 5845 5846 5847 5848 5848 5849 5849 5849 5849 5848 5848 5847 5847 5846 5845 5843 5841 5840 5839 5838 5837 5837 5837 5838 5840 5842 5845 5848 5850 5853 5855 5858 5860
5815 5819 5822 5824 5827 5829 5832 5834 5836 5838 5840 5841 5843 5844 5845 5846 5847 5847 5848 5847 5846 5846 5845 5845 5844 5843 5842 5840 5839 5839 5838 5837 5837 5837 5838 5839 5841 5844 5846 5848 5850 5852 5855 5857
5809 5814 5816 5819 5822 5825 5828 5830 5832 5834 5836 5838 5839 5843 5842 5843 5844 5845 5845 5845 5845 5844 5843 5843 5842 5841 5840 5839 5839 5838 5837 5837 5837 5837 5837 5838 5840 5841 5844 5846 5847 5849 5851 5853
5804 5808 5811 5814 5817 5819 5822 5825 5828 5831 5832 5834 5836 5841 5839 5840 5841 5842 5842 5843 5843 5842 5841 5841 5840 5839 5838 5838 5837 5837 5836 5836 5836 5836 5836 5837 5838 5839 5841 5843 5844 5846 5848 5850
5799 5803 5806 5809 5813 5815 5818 5821 5824 5826 5828 5830 5832 5837 5836 5837 5837 5838 5839 5840 5840 5840 5839 5839 5838 5837 5837 5836 5836 5835 5835 5835 5835 5835 5835 5836 5837 5838 5839 5840 5842 5843 5845 5846
5795 5798 5803 5806 5809 5812 5814 5817 5819 5822 5823 5825 5828 5830 5832 5833 5834 5834 5835 5836 5836 5837 5837 5836 5836 5835 5835 5834 5834 5833 5833 5833 5833 5833 5834 5834 5835 5836 5836 5838 5839 5840 5841 5842
5790 5793 5797 5801 5804 5807 5809 5812 5814 5817 5819 5821 5823 5825 5827 5828 5829 5830 5831 5832 5832 5833 5833 5833 5833 5832 5832 5831 5831 5830 5830 5831 5831 5831 5831 5832 5832 5833 5833 5834 5835 5836 5837 5838
5784 5788 5792 5796 5798 5801 5804 5806 5809 5811 5814 5816 5818 5820 5822 5823 5825 5826 5827 5828 5828 5829 5829 5829 5829 5829 5829 5828 5828 5827 5827 5827 5828 5828 5829 5829 5829 5829 5830 5831 5831 5832 5833 5834
5778 5783 5787 5790 5793 5796 5798 5801 5804 5806 5808 5811 5813 5816 5817 5818 5820 5821 5822 5823 5824 5824 5825 5825 5824 5824 5825 5824 5824 5824 5824 5824 5824 5825 5825 5825 5826 5826 5827 5827 5827 5828 5829 5829
5772 5776 5780 5784 5788 5789 5795 5796 5798 5801 5803 5805 5807 5809 5811 5813 5814 5815 5816 5817 5818 5819 5820 5820 5820 5820 5820 5820 5820 5820 5820 5820 5820 5821 5821 5821 5821 5822 5822 5822 5823 5823 5824 5825
5764 5769 5772 5776 5779 5782 5787 5789 5792 5794 5796 5799 5801 5803 5805 5806 5808 5810 5811 5812 5812 5813 5814 5814 5815 5815 5815 5815 5815 5815 5815 5815 5816 5816 5816 5816 5816 5817 5817 5818 5819 5819 5820 5820
5756 5761 5765 5768 5772 5775 5780 5783 5785 5788 5790 5792 5794 5796 5798 5800 5802 5804 5804 5805 5806 5806 5807 5808 5809 5809 5810 5810 5809 5809 5809 5809 5810 5810 5810 5811 5811 5812 5813 5813 5814 5814 5814 5814
5748 5752 5756 5760 5764 5767 5772 5775 5778 5782 5784 5786 5787 5789 5791 5793 5795 5797 5797 5798 5799 5799 5800 5801 5802 5802 5803 5803 5803 5803 5803 5803 5803 5804 5804 5805 5806 5807 5808 5808 5809 5809 5809 5809
5740 5745 5748 5752 5756 5762 5764 5767 5771 5773 5775 5777 5779 5782 5783 5785 5787 5788 5790 5791 5791 5792 5793 5794 5795 5795 5796 5796 5796 5796 5796 5796 5796 5797 5798 5798 5799 5800 5801 5802 5803 5803 5803 5803
5732 5737 5741 5746 5751 5754 5757 5759 5762 5765 5767 5769 5772 5774 5776 5778 5779 5781 5782 5784 5785 5785 5786 5787 5788 5788 5788 5789 5789 5789 5789 5789 5789 5790 5791 5793 5794 5795 5795 5796 5796 5797 5796 5796
5725 5729 5733 5738 5741 5745 5748 5751 5755 5757 5760 5762 5764 5766 5768 5770 5771 5773 5775 5776 5777 5778 5779 5780 5780 5781 5781 5782 5781 5781 5782 5782 5783 5784 5785 5787 5788 5788 5789 5789 5789 5789 5789 5789
5718 5722 5726 5730 5734 5738 5741 5744 5748 5751 5753 5755 5757 5759 5761 5762 5764 5766 5767 5769 5770 5770 5771 5772 5773 5774 5774 5775 5775 5775 5776 5776 5777 5778 5779 5780 5781 5782 5782 5782 5782 5782 5782 5782
5711 5715 5719 5723 5727 5731 5734 5737 5741 5743 5746 5748 5750 5752 5753 5755 5757 5758 5760 5761 5762 5763 5764 5765 5766 5766 5767 5767 5768 5769 5770 5771 5772 5772 5773 5774 5775 5775 5775 5775 5775 5775 5775 5775
Wind_Speed
21 20 18 19 18 17 16 16 16 16 17 17 16 15 15 14 13 12 12 12 13 13 14 15 15 15 14 13 10 8 6 5 6 7 10 11 13 14 14 15 15 14 13 12
23 21 21 21 20 18 16 16 16 17 19 19 18 17 15 15 14 13 12 12 13 14 15 15 15 16 14 12 10 7 5 5 6 8 10 12 13 14 15 15 15 15 14 13
24 24 24 23 21 19 17 17 17 18 20 21 20 17 16 15 15 13 12 12 13 14 14 14 15 14 12 11 9 7 5 5 7 8 10 11 13 15 15 14 16 16 15 14
26 26 25 24 22 20 18 18 19 20 21 22 21 18 15 16 14 13 12 12 12 13 14 14 14 13 12 10 9 7 4 5 7 9 11 12 13 15 15 16 16 16 15 15
26 27 26 24 22 21 20 22 21 21 22 21 21 19 16 15 14 13 12 12 12 12 12 13 13 12 11 9 8 6 4 5 7 10 11 13 14 16 16 16 16 16 16 15
28 28 26 24 24 22 22 23 22 22 22 21 19 19 16 15 14 13 12 12 12 12 12 12 12 11 10 9 8 6 5 4 7 9 12 13 14 16 16 16 16 16 16 16
28 27 26 25 24 23 22 22 23 22 22 20 18 18 15 13 12 12 12 11 12 11 10 11 10 9 9 8 7 6 4 3 5 8 10 13 15 16 15 16 17 17 17 16
29 27 27 25 24 23 23 23 22 22 21 19 18 16 14 13 12 11 11 10 10 10 10 10 9 9 8 7 7 5 5 4 4 6 10 13 14 16 15 16 17 18 17 17
28 27 26 26 25 25 25 24 22 22 21 19 18 16 15 14 12 12 10 9 10 10 10 10 9 9 8 7 6 6 5 4 4 5 8 11 14 15 15 16 17 18 18 19
29 27 26 26 26 26 25 24 23 22 21 19 18 16 15 13 13 13 12 10 10 10 10 10 9 8 7 7 6 6 5 4 3 4 5 8 12 13 14 15 16 17 18 19
28 27 26 26 26 25 25 24 24 23 21 20 18 15 14 13 13 12 11 10 10 10 10 9 8 7 7 6 6 6 5 4 4 4 5 7 10 12 13 14 15 16 18 19
27 27 26 27 27 26 25 24 23 22 21 19 18 15 14 13 14 13 11 10 9 10 11 10 8 7 7 7 7 7 6 5 5 5 6 7 9 11 12 13 15 16 17 19
27 27 27 28 28 27 26 25 24 22 21 20 19 15 14 14 15 15 13 12 11 11 11 11 10 9 8 8 8 9 7 7 7 6 7 8 9 11 13 14 15 16 16 18
28 28 27 26 25 26 26 25 24 23 22 21 20 18 16 15 16 16 15 14 13 13 13 11 12 11 10 10 10 10 8 8 8 8 8 9 10 11 12 13 14 16 17 18
28 27 26 26 25 26 26 26 25 24 22 22 21 20 18 17 17 17 16 15 15 15 14 13 12 12 11 11 11 11 10 10 10 10 10 11 11 12 13 14 15 16 17 18
29 28 26 26 26 26 27 27 27 26 25 24 23 22 20 19 18 18 17 16 16 14 14 14 14 14 13 12 12 12 12 11 12 12 12 12 12 13 14 15 16 16 17 18
32 31 29 28 28 28 29 28 28 28 27 26 25 24 22 21 20 19 19 19 18 17 17 16 15 14 14 14 13 13 13 13 14 14 14 15 15 15 16 17 17 17 18 19
35 34 33 32 31 32 31 30 29 30 30 29 27 26 24 23 22 22 21 21 21 20 19 18 18 16 16 15 14 14 14 15 15 16 16 16 16 17 17 17 17 17 18 19
38 36 35 35 35 35 33 32 31 31 31 31 29 28 26 25 25 24 23 23 23 22 21 20 19 18 17 16 16 16 16 16 17 16 17 18 18 18 18 18 19 18 19 20
38 38 38 38 37 37 34 33 33 33 32 30 29 28 27 26 25 24 24 24 24 24 23 22 21 20 19 18 18 18 19 19 19 19 18 18 18 18 18 19 19 19 20 21
36 36 37 37 38 37 35 34 34 33 32 29 29 28 28 27 26 26 25 25 25 25 24 23 23 22 21 21 21 21 20 20 21 21 20 20 20 19 20 20 20 20 21 22
35 36 36 36 37 37 35 34 34 33 32 30 29 28 28 27 27 26 26 25 24 24 24 24 24 23 23 23 23 23 23 22 21 21 21 20 21 22 22 22 22 21 22 23
35 35 35 36 35 34 34 33 32 31 31 30 29 28 28 26 26 26 25 24 24 24 24 24 23 23 23 23 22 23 23 22 22 22 21 21 22 22 23 24 24 23 23 25
33 33 34 34 33 33 32 32 31 30 29 28 28 27 27 26 26 25 24 24 24 24 24 24 23 23 23 23 23 23 23 23 22 22 21 22 23 23 24 23 22 23 24 24
32 32 32 32 31 31 31 30 29 29 28 26 26 26 25 25 25 25 24 23 24 24 24 24 24 23 23 23 22 21 21 21 22 22 22 23 23 24 24 23 22 21 22 22
30 30 31 31 30 28 28 27 27 27 26 25 25 25 24 24 24 24 24 23 22 23 23 23 23 23 23 22 21 21 20 21 21 21 22 22 23 23 23 23 24 24 24 24
Wind_Direction
256 258 259 261 264 269 273 274 272 270 271 273 277 281 285 287 287 292 303 311 322 325 330 333 333 331 330 326 317 310 293 254 226 217 216 211 208 206 202 200 199 201 202 203
252 254 255 259 263 268 272 272 268 265 268 272 275 279 280 281 287 295 300 309 316 322 326 330 332 330 327 327 320 312 304 263 219 212 211 211 209 204 202 203 200 200 202 202
249 251 253 258 262 266 269 267 261 259 265 271 274 277 276 278 283 292 299 307 313 319 322 323 326 327 326 325 322 313 289 248 230 217 211 210 208 202 201 200 201 202 202 203
247 250 253 256 259 262 264 259 256 259 263 267 275 275 275 278 282 289 294 301 306 309 314 320 325 324 325 324 321 321 298 245 225 214 205 203 200 196 196 199 202 203 203 205
244 246 250 252 255 256 256 256 259 262 264 267 273 277 279 281 282 285 288 293 300 303 310 317 320 319 323 324 322 316 298 244 222 215 204 203 201 200 199 201 203 205 205 208
241 243 246 248 250 253 253 257 261 263 266 266 273 277 282 282 283 286 288 289 294 299 304 309 313 316 322 325 326 319 305 253 227 220 212 207 206 204 203 202 205 206 207 209
240 242 244 245 248 251 252 255 259 262 265 268 270 274 278 277 279 284 286 285 290 295 296 300 307 312 318 321 324 323 304 266 233 222 214 212 210 208 205 204 207 209 211 213
238 239 242 243 245 248 249 251 255 260 264 265 267 268 270 269 274 283 286 285 289 290 292 296 299 304 313 318 319 312 296 279 244 220 211 211 210 208 207 208 212 214 216 219
236 237 239 239 239 241 244 248 253 256 259 261 262 265 262 263 267 275 282 285 288 289 291 295 296 300 308 316 318 317 307 285 253 223 216 216 213 212 213 215 217 219 222 225
232 233 235 236 236 237 239 242 245 251 255 259 259 260 262 262 266 271 275 279 281 287 290 290 291 294 299 310 314 316 317 313 277 238 223 216 213 212 216 218 222 227 229 229
229 229 229 230 231 233 237 239 243 248 252 256 259 260 261 259 262 271 274 276 280 282 288 287 285 286 291 298 307 307 301 296 284 266 250 236 223 218 219 223 226 230 231 231
226 226 225 226 227 230 234 237 242 247 252 257 261 261 259 259 262 267 273 277 278 281 288 284 282 282 287 290 299 302 291 280 274 271 260 245 232 224 224 229 232 234 234 235
224 225 223 223 226 230 234 238 242 247 251 255 259 262 258 259 264 266 268 273 272 279 285 281 279 282 289 293 298 298 285 276 272 269 266 259 249 242 235 238 239 238 239 240
226 227 226 226 229 233 236 240 245 249 252 255 258 262 260 260 263 268 268 269 271 274 275 279 282 286 286 289 293 290 281 276 273 270 268 263 257 252 248 247 247 246 245 243
230 230 226 224 225 230 236 241 245 248 252 256 261 265 266 263 263 268 269 270 273 270 273 280 283 286 284 283 285 282 273 270 269 267 264 265 263 255 253 251 251 250 248 247
234 235 233 230 228 231 236 241 246 251 253 257 262 265 265 267 266 266 268 272 274 274 274 279 281 285 283 282 283 275 269 267 267 267 265 262 261 257 256 255 255 253 252 252
236 237 237 236 235 236 237 241 247 251 254 258 261 264 268 268 269 270 271 271 275 275 273 274 281 282 281 279 278 275 270 266 264 264 265 265 263 260 260 260 257 257 256 257
237 238 239 240 240 242 243 245 248 251 255 259 262 265 267 269 270 270 271 271 273 273 272 277 279 282 282 281 276 276 274 266 263 261 262 265 262 260 260 259 260 260 261 262
236 237 239 241 242 245 247 248 251 253 256 260 262 264 266 268 268 269 270 270 273 275 273 274 276 280 276 275 274 272 273 270 264 261 263 262 264 261 259 259 260 260 261 260
237 237 237 240 243 246 249 251 254 256 258 260 262 263 265 266 265 267 268 269 272 272 270 271 272 275 272 270 270 270 270 269 267 263 262 264 265 263 261 261 262 262 262 263
236 237 237 239 243 247 249 252 255 257 259 260 261 262 263 266 266 266 267 267 269 268 268 268 269 270 270 269 268 268 269 269 267 263 261 260 261 261 262 264 262 265 265 266
235 237 238 240 243 245 248 252 254 257 258 259 261 261 262 264 265 264 263 264 266 266 266 266 268 269 270 269 268 268 266 266 264 261 259 259 258 258 259 261 262 264 266 268
237 238 240 242 245 247 249 252 253 254 256 258 260 261 262 263 263 262 260 261 263 264 262 263 266 267 268 268 268 269 265 263 260 256 256 257 258 262 264 264 263 266 268 270
236 238 239 242 245 246 248 249 251 251 254 257 258 260 261 262 262 261 262 261 261 262 260 262 263 266 267 268 270 267 262 258 256 254 254 256 259 263 265 265 268 269 269 270
235 237 239 241 243 244 246 248 248 250 251 253 255 257 260 261 261 261 261 260 260 260 261 262 264 266 268 268 266 261 259 256 256 257 258 258 258 262 263 264 267 271 271 272
234 235 236 237 238 240 242 245 245 246 248 251 255 256 258 260 260 260 260 263 263 262 261 263 264 264 264 264 261 258 256 256 256 256 258 260 260 263 266 268 271 271 271 271